Hourly Data Report for January 17, 2003

SHERBROOKE A
QUEBEC

45°26'00.000" N
71°41'00.000" W
241.40 m
7028124
71610
YSC

Download Data

Hourly Data (January 2003)
Hourly Data Report for January 17, 2003
TIME
LST
Temp Definition
°C
Dew Point Definition
°C
Rel Hum Definition
%
Precip. Amount Definition
mm

Wind Dir Definition
10's deg

Wind Spd Definition
km/h
Visibility Definition
km
Stn Press Definition
kPa
Hmdx Definition


Wind Chill Definition


Weather Definition


00:00 -14.6 -19.2 68     0 15.0 98.20      
01:00 -13.9 -18.1 70   6 4 15.0 98.12   -17  
02:00 -13.2 -17.1 72     0 15.0 98.08      
03:00 -11.6 -15.6 72   22 4 15.0 98.01   -14  
04:00 -10.9 -14.7 74     0 12.9 97.93     Snow
05:00 -10.2 -13.5 77   21 4 4.0 97.85   -13 Snow
06:00 -11.0 -13.6 81   28 6 2.7 97.89   -15 Snow
07:00 -13.4 -16.4 78   26 9 6.4 98.00   -19 Snow
08:00 -16.0 -20.3 69   27 6 24.1 98.10   -20 Snow
09:00 -15.7 -21.1 63   31 7 19.3 98.19   -21 Snow
10:00 -16.1 -21.9 61   29 13 24.1 98.21   -24 Mainly Clear
11:00 -15.5 -22.2 56   31 11 24.1 98.18   -22 Mainly Clear
12:00 -15.3 -22.9 52   34 7 24.1 98.15   -20 Mainly Clear
13:00 -16.2 -24.1 51   26 19 24.1 98.13   -25 Clear
14:00 -16.3 -26.5 41   32 13 24.1 98.18   -24 Clear
15:00 -17.3 -26.7 44   28 20 24.1 98.24   -27 Clear
16:00 -18.4 -27.7 44   31 9 24.1 98.28   -25 Clear
17:00 -20.3 -28.0 50   30 11 24.1 98.37   -28 Clear
18:00 -22.4 -29.6 52   27 6 15.0 98.45   -28  
19:00 -23.3 -29.4 57   24 6 15.0 98.51   -29  
20:00 -23.1 -29.5 56   28 7 15.0 98.54   -29  
21:00 -24.5 -30.1 60   26 7 15.0 98.54   -31  
22:00 -28.3 -33.7 60     0 15.0 98.55      
23:00 -29.2 -34.0 63   13 4 15.0 98.59   -34  

Notes on Data Quality.

Legend

  • E = Estimated
  • M = Missing
  • NA = Not Available*
  • [empty] = Indicates an unobserved value
Date modified: